Theta_e
311 314 322 321 317 314 317 319 320 310 309 310 309 309 310 306 305 312 317 318 319 321 325 327 328 329 330 333 333 333 333 333 332 331 330 329 330 330 330 329 329 329 328 327
312 313 313 316 316 316 312 312 315 311 309 308 309 309 307 305 304 305 310 310 313 313 310 318 325 327 328 329 331 333 334 333 333 332 332 330 330 329 328 329 330 330 329 328
314 311 311 313 312 315 315 312 310 312 309 308 308 309 308 306 304 304 303 303 304 307 307 308 313 321 325 327 328 330 331 333 333 333 333 332 332 331 329 327 328 328 327 326
311 310 310 311 311 311 314 310 309 310 315 316 308 312 308 306 307 304 304 302 302 300 300 303 307 311 318 323 326 328 329 330 332 333 333 333 332 331 331 327 326 326 327 328
312 311 310 312 312 311 312 308 309 309 309 307 308 307 308 304 305 305 304 303 303 303 300 301 304 310 314 316 320 323 326 329 331 332 332 332 331 331 329 327 326 328 328 329
308 306 308 310 311 311 309 312 308 306 307 311 311 308 308 305 305 306 307 304 304 302 299 300 305 307 310 312 315 319 323 328 330 332 332 332 331 331 328 327 326 327 328 327
307 306 306 309 310 311 311 315 316 311 310 313 302 305 310 306 302 304 306 306 304 301 300 300 302 306 308 311 311 312 312 316 325 329 331 331 332 331 329 325 324 325 325 324
312 312 305 305 310 311 312 314 315 315 312 310 303 307 307 304 304 301 300 300 300 300 301 302 303 306 308 310 311 312 312 311 310 320 329 329 331 331 328 325 325 325 323 321
310 309 306 304 305 308 306 314 310 308 299 307 306 304 303 303 304 302 301 302 301 300 300 302 304 306 308 309 311 312 312 311 310 309 321 326 329 330 327 326 325 323 320 315
306 309 306 306 306 306 306 307 309 308 311 309 306 305 307 306 305 306 304 304 305 301 301 303 304 306 308 309 311 313 313 311 311 311 315 322 328 329 327 325 323 319 315 311
304 306 308 306 306 305 305 307 307 308 309 311 307 308 302 305 305 305 305 303 304 303 303 303 303 306 307 308 311 313 313 313 313 314 317 320 325 325 324 322 320 316 312 307
304 305 307 306 306 305 305 306 307 310 309 304 308 310 302 302 302 302 302 303 304 303 302 302 302 304 304 306 309 311 311 312 313 316 318 319 320 319 319 316 317 314 307 299
306 307 303 308 307 306 306 305 306 306 307 309 310 311 302 303 304 302 303 302 304 303 302 301 300 301 302 303 305 307 308 309 310 312 314 313 313 313 313 313 310 307 299 295
308 308 307 308 308 306 309 306 305 306 308 309 308 308 307 305 304 304 305 305 304 303 302 301 299 299 301 302 303 305 307 308 309 308 309 309 309 309 309 308 303 297 295 294
308 310 308 306 306 307 308 308 306 307 308 309 310 308 306 305 305 303 304 305 305 304 303 302 301 299 300 300 302 303 306 306 307 305 305 306 306 305 302 299 295 294 293 293
305 304 306 306 306 306 307 308 307 307 308 308 308 308 306 304 302 303 304 304 306 305 305 303 302 301 299 300 300 301 302 303 303 303 304 303 300 298 296 294 293 292 292 292
307 304 303 304 306 306 307 307 307 306 307 308 308 309 303 303 302 303 302 304 305 305 305 304 303 302 301 300 301 300 301 301 301 301 299 297 295 294 293 292 292 292 291 291
308 310 307 308 306 309 308 305 305 306 307 307 307 305 304 304 302 302 302 303 304 304 304 304 304 303 302 301 300 300 299 300 297 296 296 294 294 293 292 292 291 291 291 290
306 308 307 311 309 307 306 304 303 304 306 304 304 304 303 302 303 302 301 301 303 304 304 305 305 304 303 301 300 300 298 297 295 294 294 293 292 292 291 291 291 290 290 289
303 307 310 297 311 311 309 304 303 307 310 307 304 303 302 301 304 308 304 301 301 302 303 305 306 305 303 301 300 298 296 295 293 294 294 293 292 291 291 291 290 290 289 289
303 301 309 298 308 302 300 301 304 311 309 300 304 305 302 303 305 301 300 301 300 300 301 303 305 304 303 301 299 296 294 293 294 294 293 292 292 291 291 290 290 289 288 287
307 308 305 294 297 309 298 301 310 306 299 301 304 303 300 300 301 301 299 299 297 297 299 301 302 303 302 300 298 295 294 295 294 294 293 292 291 290 290 290 288 288 287 286
308 307 308 308 307 302 297 302 299 297 298 299 299 300 301 302 302 299 299 297 295 295 295 298 299 299 299 298 297 295 295 294 293 292 290 290 290 290 289 289 287 286 285 284
304 303 305 306 303 302 299 297 297 297 297 297 297 297 298 299 298 298 296 295 293 292 292 294 297 296 295 296 296 296 294 293 292 289 288 289 289 288 288 287 287 285 284 284
301 303 302 302 302 301 298 298 297 296 296 296 296 296 296 296 295 296 292 290 289 291 293 293 294 294 294 294 294 294 294 293 289 288 286 286 287 288 286 286 286 285 285 285
302 306 306 302 301 301 301 297 297 297 296 294 295 295 294 294 294 293 289 290 291 291 292 293 293 293 293 293 292 293 292 291 288 286 285 285 285 284 284 284 283 283 283 284
Wind_Speed
4 5 8 10 7 2 9 6 9 2 4 2 7 9 11 3 2 6 9 9 9 11 15 19 27 31 33 33 35 34 33 32 31 30 27 24 23 22 20 18 16 17 14 12
4 10 7 5 4 6 2 3 10 4 3 3 2 12 8 5 6 8 11 9 11 7 6 15 25 29 33 35 35 35 35 35 35 33 30 27 26 23 21 19 18 16 16 16
11 4 12 12 7 11 10 3 4 1 3 1 3 7 6 6 4 5 7 8 6 13 11 10 20 30 32 35 37 38 37 37 37 36 32 28 23 20 22 18 19 18 17 17
5 6 16 8 11 9 8 6 1 2 3 6 1 7 7 7 9 7 10 8 12 11 9 9 17 24 31 35 37 38 38 37 38 37 36 33 26 21 25 21 19 20 20 18
8 12 6 16 9 7 4 5 3 4 4 1 5 3 7 2 7 8 10 12 14 14 11 11 20 30 30 27 31 33 33 34 35 37 37 37 31 29 21 22 18 18 17 16
8 3 8 7 5 8 8 6 7 2 4 6 12 7 6 6 7 6 12 11 14 11 10 10 19 25 26 21 23 25 28 32 32 34 36 37 33 31 22 23 19 15 15 14
3 3 3 8 7 5 7 11 2 2 3 8 5 3 12 5 8 8 11 14 14 9 9 10 10 21 27 25 23 23 23 26 30 32 34 37 36 34 30 28 25 23 19 16
10 7 9 4 7 6 13 11 6 7 3 3 0 8 6 10 6 8 8 9 7 9 12 15 17 23 30 28 25 23 24 26 27 29 30 33 36 34 31 30 27 24 22 19
7 5 1 3 5 10 6 15 6 4 4 3 6 6 8 6 9 7 11 8 12 10 10 11 9 21 26 24 22 22 22 23 25 29 27 30 35 35 32 29 26 25 22 19
6 4 3 4 4 2 11 12 7 2 5 5 4 5 5 3 10 11 10 13 16 6 6 5 8 17 19 19 18 18 19 20 22 25 29 30 34 35 33 30 27 24 22 20
6 5 1 5 8 9 3 10 3 5 4 5 0 7 8 11 12 11 10 6 5 6 6 6 6 14 15 16 16 16 17 18 19 21 25 29 31 33 35 32 27 23 22 22
8 6 4 6 2 0 4 8 12 7 10 1 2 15 5 9 6 5 9 8 6 6 9 8 11 16 15 16 16 16 16 17 19 22 26 28 31 34 34 32 28 25 26 25
8 3 4 4 2 0 6 4 7 4 4 10 4 15 3 4 5 6 7 7 5 3 4 5 7 12 17 17 16 16 16 17 18 23 27 30 34 34 33 31 31 30 29 26
11 4 7 10 5 8 5 5 3 5 3 6 11 3 5 6 8 3 3 4 4 6 7 6 6 10 16 18 19 19 20 22 23 25 28 32 34 34 33 33 32 32 29 26
7 8 5 3 5 6 7 13 14 12 16 9 30 16 12 11 5 5 4 4 5 7 8 8 8 7 17 20 21 22 24 26 27 28 29 31 32 33 34 33 32 29 26 24
2 3 5 3 2 6 6 11 14 20 21 21 18 22 2 4 6 5 7 6 7 9 11 12 11 12 17 21 26 28 28 28 28 30 32 33 33 34 34 33 31 28 25 23
8 6 3 7 2 3 3 14 16 13 16 18 17 19 6 4 8 8 8 8 11 12 10 12 15 17 22 27 32 33 33 31 32 33 32 34 34 34 34 32 30 28 25 23
5 12 3 3 3 5 7 5 13 17 14 21 20 2 7 9 8 8 7 8 11 9 10 13 15 22 29 31 32 32 32 34 34 32 34 35 36 35 33 31 30 27 25 22
6 4 2 5 4 6 11 8 7 7 14 14 13 8 8 5 1 9 9 12 15 14 13 16 21 24 23 29 33 35 34 35 35 36 38 39 39 37 35 33 31 27 24 22
2 9 10 4 7 11 20 10 6 6 16 9 10 12 10 7 5 13 3 7 10 10 11 15 19 21 25 30 35 36 35 37 36 41 42 42 40 39 38 35 31 27 23 21
3 2 13 4 7 10 6 4 8 8 11 1 1 7 8 9 4 1 5 4 5 8 13 14 18 26 31 32 36 31 29 35 39 39 42 42 41 39 37 34 31 27 24 22
8 8 4 3 2 19 5 4 19 7 2 4 3 3 6 4 5 4 7 6 7 7 13 11 15 22 24 31 36 30 33 35 37 42 44 43 42 40 37 34 30 27 26 24
4 5 7 12 9 3 6 1 3 3 4 3 4 1 3 3 2 3 3 7 6 9 12 11 11 10 17 27 32 26 28 31 37 40 40 42 42 39 36 34 31 28 26 24
3 1 3 3 1 1 3 3 2 3 4 4 3 2 3 2 3 4 4 6 6 11 11 10 4 8 15 22 27 26 23 31 35 33 36 41 43 38 36 33 32 31 28 25
2 3 3 2 3 4 3 1 3 3 4 5 3 3 4 3 5 4 4 5 5 9 10 8 6 8 13 16 21 24 24 30 31 30 32 34 39 40 38 33 32 29 26 25
2 3 3 2 1 3 2 3 2 4 4 5 4 4 4 5 4 3 3 4 5 7 6 6 7 9 12 14 18 21 25 30 33 31 33 35 38 37 36 33 26 24 21 23
Wind_Direction
164 178 198 179 175 94 145 169 231 241 201 188 225 247 248 209 230 225 215 212 212 224 236 223 223 223 225 224 221 220 219 221 220 219 218 217 215 222 229 230 228 224 226 233
130 221 188 174 152 235 203 186 231 269 28 156 272 259 256 191 224 214 218 213 219 220 220 231 226 221 223 226 225 224 225 224 223 223 221 217 217 227 230 233 229 233 240 241
163 251 197 180 170 209 223 196 262 202 57 270 300 283 245 237 217 213 228 228 208 222 219 226 226 225 226 227 228 228 230 229 228 225 223 220 221 226 221 233 240 241 241 244
247 247 176 183 195 182 211 179 343 84 70 269 317 268 258 220 231 204 230 211 230 223 224 223 218 224 225 230 232 231 231 230 230 225 223 221 215 215 226 226 236 236 235 241
211 196 188 192 186 145 146 66 144 202 137 27 239 254 253 155 241 240 237 231 233 228 213 212 212 222 223 226 229 229 228 229 227 225 223 222 216 221 226 213 220 228 230 230
202 221 177 159 137 155 110 50 331 61 105 253 236 199 245 207 195 228 233 230 234 230 217 218 222 220 216 213 215 217 219 221 222 223 222 223 218 221 204 197 200 202 202 206
130 239 163 132 141 132 117 135 218 196 189 242 344 225 245 252 233 219 225 229 228 226 207 204 196 197 204 202 206 209 212 216 217 221 224 224 224 224 207 200 200 193 192 185
169 209 161 194 172 163 179 170 173 199 197 217 352 244 248 222 277 251 261 259 272 236 217 208 203 194 200 203 206 213 216 221 220 218 219 223 223 221 211 205 197 191 189 185
152 238 98 171 152 141 176 212 208 83 80 56 219 289 295 269 260 250 251 249 253 239 225 221 188 192 199 203 207 213 221 226 227 225 217 220 217 216 209 193 194 187 183 181
176 144 192 160 113 212 183 159 173 193 181 218 264 277 233 276 233 233 243 230 240 215 216 211 185 191 198 206 213 220 225 228 227 223 215 219 211 209 200 187 181 183 183 178
150 109 178 130 207 165 159 188 189 154 172 193 186 259 214 216 217 236 257 316 271 209 194 177 176 195 201 208 212 221 222 224 216 212 207 211 203 197 183 179 178 185 181 177
184 119 153 197 258 250 188 187 193 200 211 276 154 246 198 232 264 273 274 266 246 220 184 179 180 189 195 207 209 212 215 213 208 200 199 199 193 184 181 177 178 184 180 174
178 156 87 8 340 123 219 213 187 144 75 212 165 255 245 256 286 251 269 290 264 191 160 161 178 196 201 204 204 203 203 202 199 196 193 188 183 181 178 174 171 175 174 171
144 128 163 194 211 133 188 189 156 149 177 209 243 228 259 261 246 288 306 291 230 207 194 193 195 201 205 206 201 199 196 198 194 191 188 183 180 179 177 172 171 172 173 171
145 190 177 239 207 184 188 186 182 191 218 187 248 242 229 245 259 243 255 186 204 209 210 207 203 199 202 206 206 205 202 197 195 191 188 184 180 179 174 170 168 169 170 170
183 218 123 205 211 204 193 206 196 206 221 235 255 262 76 248 240 217 227 206 222 225 216 207 208 201 201 200 204 206 204 200 197 195 191 187 180 175 170 169 169 169 168 170
172 124 106 233 126 109 343 207 198 211 218 228 236 247 161 219 230 237 250 215 230 228 221 211 210 208 205 203 203 202 204 201 195 195 193 184 177 174 172 172 171 171 173 174
151 187 121 200 69 197 252 204 196 208 221 224 243 139 197 225 238 242 230 224 239 231 210 214 211 212 210 205 201 203 203 198 197 193 188 183 180 179 177 176 176 175 176 177
160 124 116 147 197 280 278 226 160 169 254 222 227 219 229 219 238 261 226 220 232 231 230 224 219 218 206 200 200 199 196 197 196 195 193 189 187 182 180 180 179 179 178 178
36 193 187 129 211 222 254 181 170 108 276 210 185 199 199 143 230 259 258 238 248 256 247 234 230 213 203 202 199 193 191 193 193 196 196 195 191 188 185 184 181 183 183 182
125 89 193 177 220 262 233 156 145 158 264 35 110 205 175 193 208 264 347 334 341 311 297 266 226 206 208 201 197 193 193 197 199 196 197 195 194 192 191 186 185 183 180 181
157 152 175 84 129 250 147 66 174 224 80 126 102 118 176 234 324 341 321 328 343 325 320 296 235 219 209 201 195 192 199 202 196 199 198 197 194 193 191 188 184 184 183 182
193 190 185 188 209 212 192 349 103 117 135 141 123 114 117 145 100 20 336 333 335 339 328 314 261 216 204 204 203 197 204 196 197 196 191 192 192 192 190 186 183 181 186 187
244 228 166 120 83 123 192 80 61 57 96 97 92 106 91 106 22 10 347 349 344 341 341 338 270 206 203 213 212 214 205 201 197 184 186 191 189 187 188 189 189 188 188 190
208 120 151 301 51 103 57 51 127 84 78 82 73 69 63 57 33 33 353 336 334 335 340 334 287 254 239 225 219 216 211 202 187 183 183 181 183 185 185 190 192 195 200 201
194 169 168 201 349 113 67 67 80 95 72 65 79 74 41 45 35 23 351 326 317 316 319 306 280 262 254 237 226 216 209 199 185 177 178 179 180 182 185 186 187 197 204 209